Location: Key Biscayne
(25.6930°N, 80.1630°W)
Time: 07:31:52
(UTC-05:00)

Vanguard 1 - Pass Details

Date: 25 November 2017
Orbit: 650 x 3833 km, 34.2° (Epoch: 10 December)

Event Time Altitude Azimuth Distance (km) Brightness Sun altitude
Rises 18:23:51 0° 295° (WNW) 3,214 13.5 -12.3°
Reaches altitude 10° 18:26:33 10° 304° (NW) 2,130 12.4 -12.9°
Maximum altitude 18:30:46 36° 13° (NNE) 1,020 9.9 -13.8°
Enters shadow 18:33:03 22° 65° (ENE) 1,439 10.3 -14.3°
